一网星座-0032星 (ONEWEB-0032 )

导读

ONEWEB-0032是英国OneWeb公司的低轨互联网卫星,于2020年2月6日发射,是OneWeb全球低轨卫星星座的组成部分。OneWeb星座旨在为全球提供宽带互联网接入服务,覆盖偏远地区及海洋空域等传统网络难以覆盖区域,同时该低轨巨型星座也具备潜在军事应用价值,ONEWEB-0032的入轨助力OneWeb逐步推进其全球组网目标。

基本信息
目录编号:
45141
目录名称:
ONEWEB-0032
国际标识:
2020-008L
轨道中心:
EARTH
卫星名称:
一网星座-0032星
卫星全名:
一网星座-0032星 (ONEWEB-0032 )
卫星状态:
在轨 (已飞行2409 天)
发射日期:
2020-02-06 UTC
国别 :
英国 (GB)
星等 :
--
该卫星已列入 空间交会检测服务 Space Conjunction Data Service (SCDS) ,当前飞行风险评估等级: 无高风险
轨道信息
数据来源 国际轨道数据 AOE轨道数据
星历时间 2026-09-11T02:01:31+0800
18小时前
查看轨道信息
2026-09-10T06:00:00+0800
1天前
查看轨道信息
半长轴 7599.862km 7599.854km
偏心率 0.0002071 0.0002007
轨道倾角 87.889° 87.889°
近地点辐角 110.772° 109.565°
升交点赤经 19.232° 19.398°
平近点角 249.363° 276.733°
近地点 1220.151km 1220.191km
远地点 1223.299km 1223.243km
周期 109.893分钟 109.892分钟
每日圈数 13.103709 13.103729
详细信息
平衡模式:
三轴稳定
覆盖范围:
全球
运营商:
一网卫星公司
运营商所在国:
英国
制造商(研发单位):
一网卫星公司
制造商所在国:
英国
使用方式:
暂无
卫星简介
OneWeb卫星网络由648颗重约125公斤的微型卫星组成,运行在1200公里的轨道上。 每颗卫星都能够提供至少每秒8千兆位的吞吐量,以使用其高吞吐量的Ku频段有效载荷为家庭和移动平台提供互联网接入。该卫星仍在工作。
2D轨道图
3D轨道图
轨道高度分析图
轨道倾角分析图
轨道综合分析图
查看轨道综合分析图
交会数据列表
事件ID 空间交会对象 最接近时刻(TCA) 交会距离 交会风险概率(CRP) 交会风险指数(CRI) 操作
CDM_260906-125404-169904-514127
2026-09-06T
12:54:08+0000
1.346 km
极远距离
7.984793E-6 低风险 0.53
与全量物体交会距离演化趋势
与全量物体交会风险概率演化趋势